TimeMST,TemperatureF,Dew PointF,Humidity,Sea Level PressureIn,VisibilityMPH,Wind Direction,Wind SpeedMPH,Gust SpeedMPH,PrecipitationIn,Events,Conditions,WindDirDegrees,DateUTC
12:53 AM,32.0,21.9,66,30.21,10.0,WSW,15.0,-,N/A,,Overcast,240,2014-01-15 07:53:00
1:53 AM,30.0,19.9,66,30.18,10.0,SW,17.3,-,N/A,,Clear,230,2014-01-15 08:53:00
2:53 AM,30.9,19.9,64,30.15,10.0,SW,17.3,-,N/A,,Clear,230,2014-01-15 09:53:00
3:53 AM,30.9,19.9,64,30.13,10.0,SW,15.0,-,N/A,,Clear,230,2014-01-15 10:53:00
4:53 AM,30.9,21.0,67,30.09,10.0,SW,16.1,-,N/A,,Clear,220,2014-01-15 11:53:00
5:53 AM,33.1,21.9,64,30.07,10.0,SSW,12.7,-,N/A,,Clear,210,2014-01-15 12:53:00
6:53 AM,35.1,21.0,57,30.06,10.0,WSW,11.5,-,N/A,,Clear,250,2014-01-15 13:53:00
7:53 AM,32.0,21.0,64,30.06,10.0,WSW,4.6,-,N/A,,Clear,240,2014-01-15 14:53:00
8:53 AM,39.9,23.0,51,30.03,10.0,West,13.8,-,N/A,,Mostly Cloudy,270,2014-01-15 15:53:00
9:53 AM,41.0,23.0,49,30.03,10.0,West,15.0,-,N/A,,Clear,280,2014-01-15 16:53:00
10:53 AM,42.1,23.0,47,30.03,10.0,West,13.8,-,N/A,,Clear,280,2014-01-15 17:53:00
11:53 AM,41.0,24.1,51,30.02,10.0,West,15.0,-,N/A,,Mostly Cloudy,280,2014-01-15 18:53:00
12:53 PM,43.0,23.0,45,29.97,10.0,West,19.6,28.8,N/A,,Scattered Clouds,280,2014-01-15 19:53:00
1:53 PM,45.0,23.0,42,29.95,10.0,WNW,20.7,-,N/A,,Partly Cloudy,290,2014-01-15 20:53:00
2:53 PM,45.0,23.0,42,29.97,10.0,WNW,11.5,-,N/A,,Partly Cloudy,300,2014-01-15 21:53:00
3:53 PM,44.1,21.9,42,29.96,10.0,WNW,18.4,-,N/A,,Clear,300,2014-01-15 22:53:00
4:53 PM,42.1,21.9,45,29.98,10.0,WNW,19.6,-,N/A,,Clear,300,2014-01-15 23:53:00
5:53 PM,42.1,21.9,45,29.99,10.0,WNW,24.2,31.1,N/A,,Clear,300,2014-01-16 00:53:00
6:53 PM,39.9,21.9,49,30.00,10.0,WNW,18.4,28.8,N/A,,Clear,300,2014-01-16 01:53:00
7:53 PM,39.9,21.9,49,30.01,10.0,WNW,23.0,31.1,N/A,,Clear,300,2014-01-16 02:53:00
8:53 PM,39.0,21.9,50,30.02,10.0,NW,20.7,-,N/A,,Mostly Cloudy,310,2014-01-16 03:53:00
9:53 PM,35.1,21.9,59,30.09,10.0,NNW,23.0,32.2,N/A,,Scattered Clouds,330,2014-01-16 04:53:00
10:53 PM,33.1,19.0,56,30.14,10.0,NNW,25.3,33.4,N/A,,Overcast,340,2014-01-16 05:53:00
11:38 PM,28.4,24.8,86,30.13,2.5,NNW,21.9,34.5,0.00,Snow,Light Snow,330,2014-01-16 06:38:00
11:53 PM,28.9,24.1,82,30.18,2.0,NW,19.6,27.6,0.00,Snow,Light Snow,320,2014-01-16 06:53:00